• In Deutschland
  • Länderverzeichnis
  • Für 7 Tage
  • Wassertemperatur
  • Satellitenkarten
  • Wetterkarte
  • Widgets
  • user-avatar
    Anmelden

    Stündliche Wetter Dülmen

    Heute, 14 Dezember, Donnerstag

    Zeit Temperatur Niederschläge Wind Luftdruck Luftfeuchtigkeit
    00:00 +2°C° 0 mm 6 m/S 733 mmHg 83%
    01:00 +2°C° 0,1 mm 5 m/S 733 mmHg 84%
    02:00 +2°C° 0,1 mm 5 m/S 733 mmHg 84%
    03:00 +1°C° 0,1 mm 4 m/S 733 mmHg 85%
    04:00 +1°C° 0,9 mm 5 m/S 733 mmHg 84%
    05:00 +2°C° 0,9 mm 7 m/S 734 mmHg 83%
    06:00 0°C° 0 mm 7 m/S 735 mmHg 84%
    07:00 0°C° 0,4 mm 7 m/S 735 mmHg 82%
    08:00 0°C° 0,4 mm 7 m/S 736 mmHg 80%
    09:00 +1°C° 0,4 mm 6 m/S 736 mmHg 78%
    10:00 +2°C° 1 mm 7 m/S 736 mmHg 78%
    11:00 +2°C° 1 mm 7 m/S 736 mmHg 79%
    12:00 +2°C° 1 mm 7 m/S 736 mmHg 79%
    13:00 +2°C° 0,5 mm 6 m/S 736 mmHg 79%
    14:00 +2°C° 0,5 mm 5 m/S 736 mmHg 79%
    15:00 +2°C° 0,5 mm 5 m/S 736 mmHg 80%
    16:00 +3°C° 0 mm 4 m/S 736 mmHg 81%
    17:00 +1°C° 0 mm 4 m/S 735 mmHg 83%
    18:00 +1°C° 0 mm 4 m/S 735 mmHg 85%
    19:00 +1°C° 0 mm 3 m/S 735 mmHg 86%
    20:00 +1°C° 0 mm 3 m/S 735 mmHg 87%
    21:00 +1°C° 0 mm 3 m/S 735 mmHg 88%
    22:00 0°C° 0 mm 3 m/S 735 mmHg 89%
    23:00 0°C° 0 mm 3 m/S 735 mmHg 90%

    Morgen, 15 Dezember, Freitag

    Zeit Temperatur Niederschläge Wind Luftdruck Luftfeuchtigkeit
    00:00 0°C° 0 mm 3 m/S 735 mmHg 91%
    01:00 0°C° 0 mm 3 m/S 736 mmHg 92%
    02:00 0°C° 0 mm 3 m/S 736 mmHg 92%
    03:00 0°C° 0 mm 3 m/S 736 mmHg 93%
    04:00 -1°C° 0 mm 3 m/S 736 mmHg 93%
    05:00 -1°C° 0 mm 3 m/S 737 mmHg 92%
    06:00 -1°C° 0 mm 3 m/S 737 mmHg 92%
    07:00 0°C° 0 mm 3 m/S 737 mmHg 91%
    08:00 0°C° 0 mm 3 m/S 738 mmHg 89%
    09:00 0°C° 0 mm 3 m/S 738 mmHg 88%
    10:00 +1°C° 0 mm 3 m/S 738 mmHg 86%
    11:00 +2°C° 0 mm 3 m/S 739 mmHg 84%
    12:00 +3°C° 0 mm 3 m/S 739 mmHg 82%
    13:00 +3°C° 0 mm 2 m/S 739 mmHg 85%
    14:00 +3°C° 0 mm 2 m/S 740 mmHg 88%
    15:00 +2°C° 0 mm 2 m/S 740 mmHg 90%
    16:00 +3°C° 0 mm 1 m/S 741 mmHg 92%
    17:00 +3°C° 0 mm 1 m/S 741 mmHg 93%
    18:00 +3°C° 0 mm 1 m/S 742 mmHg 94%
    19:00 +3°C° 0 mm 1 m/S 743 mmHg 95%
    20:00 +3°C° 0 mm 1 m/S 743 mmHg 95%
    21:00 +3°C° 0 mm 1 m/S 744 mmHg 95%
    22:00 +2°C° 0 mm 2 m/S 744 mmHg 95%
    23:00 +2°C° 0 mm 2 m/S 745 mmHg 95%

    übermorgen, 16 Dezember, Samstag

    Zeit Temperatur Niederschläge Wind Luftdruck Luftfeuchtigkeit
    00:00 +1°C° 0 mm 2 m/S 745 mmHg 95%
    01:00 +1°C° 0 mm 2 m/S 745 mmHg 94%
    02:00 +1°C° 0 mm 2 m/S 746 mmHg 94%
    03:00 +1°C° 0 mm 2 m/S 746 mmHg 93%
    04:00 +1°C° 0,1 mm 2 m/S 747 mmHg 93%
    05:00 0°C° 0,1 mm 3 m/S 747 mmHg 93%
    06:00 0°C° 0,1 mm 3 m/S 747 mmHg 93%
    07:00 0°C° 0,1 mm 3 m/S 748 mmHg 91%
    08:00 0°C° 0,1 mm 3 m/S 748 mmHg 89%
    09:00 +1°C° 0,1 mm 3 m/S 749 mmHg 87%
    10:00 0°C° 0 mm 4 m/S 749 mmHg 83%
    11:00 +1°C° 0 mm 4 m/S 750 mmHg 80%
    12:00 +3°C° 0 mm 4 m/S 750 mmHg 76%
    13:00 +1°C° 0,2 mm 4 m/S 750 mmHg 78%
    14:00 +2°C° 0,2 mm 3 m/S 750 mmHg 79%
    15:00 +2°C° 0,2 mm 3 m/S 751 mmHg 80%
    16:00 +1°C° 0,1 mm 3 m/S 751 mmHg 82%
    17:00 +1°C° 0,1 mm 3 m/S 752 mmHg 83%
    18:00 0°C° 0,1 mm 3 m/S 753 mmHg 85%
    19:00 0°C° 0 mm 3 m/S 753 mmHg 85%
    20:00 0°C° 0 mm 3 m/S 754 mmHg 85%
    21:00 0°C° 0 mm 3 m/S 755 mmHg 85%
    22:00 0°C° 0 mm 3 m/S 755 mmHg 86%
    23:00 0°C° 0 mm 3 m/S 756 mmHg 86%

    17 Dezember, Sonntag

    Zeit Temperatur Niederschläge Wind Luftdruck Luftfeuchtigkeit
    00:00 -1°C° 0 mm 3 m/S 756 mmHg 86%
    01:00 -1°C° 0 mm 3 m/S 756 mmHg 86%
    02:00 -1°C° 0 mm 3 m/S 757 mmHg 87%
    03:00 -1°C° 0 mm 3 m/S 757 mmHg 87%
    04:00 -1°C° 0 mm 3 m/S 757 mmHg 88%
    05:00 -1°C° 0 mm 3 m/S 758 mmHg 88%
    06:00 -1°C° 0 mm 3 m/S 758 mmHg 89%
    07:00 0°C° 0 mm 3 m/S 759 mmHg 89%
    08:00 0°C° 0 mm 3 m/S 759 mmHg 88%
    09:00 0°C° 0 mm 3 m/S 760 mmHg 88%
    10:00 +1°C° 0,1 mm 3 m/S 760 mmHg 87%
    11:00 +2°C° 0,1 mm 3 m/S 760 mmHg 85%
    12:00 +1°C° 0,1 mm 4 m/S 760 mmHg 84%
    13:00 +2°C° 0,1 mm 3 m/S 761 mmHg 85%
    14:00 +2°C° 0,1 mm 3 m/S 761 mmHg 87%
    15:00 +2°C° 0,1 mm 3 m/S 761 mmHg 88%
    16:00 +2°C° 0 mm 3 m/S 761 mmHg 89%
    17:00 +1°C° 0 mm 3 m/S 761 mmHg 90%
    18:00 0°C° 0 mm 4 m/S 761 mmHg 91%
    19:00 0°C° 0,1 mm 4 m/S 762 mmHg 90%
    20:00 0°C° 0,1 mm 4 m/S 762 mmHg 90%
    21:00 0°C° 0,1 mm 5 m/S 762 mmHg 90%
    22:00 +1°C° 0,3 mm 6 m/S 761 mmHg 90%
    23:00 +1°C° 0,3 mm 6 m/S 760 mmHg 91%

    18 Dezember, Montag

    Zeit Temperatur Niederschläge Wind Luftdruck Luftfeuchtigkeit
    00:00 +2°C° 0,3 mm 7 m/S 759 mmHg 91%
    01:00 +3°C° 1,1 mm 7 m/S 759 mmHg 91%
    02:00 +2°C° 1,1 mm 8 m/S 758 mmHg 91%
    03:00 +4°C° 1,1 mm 8 m/S 757 mmHg 92%
    04:00 +4°C° 1,2 mm 8 m/S 757 mmHg 92%
    05:00 +5°C° 1,2 mm 8 m/S 757 mmHg 92%
    06:00 +5°C° 1,2 mm 8 m/S 757 mmHg 92%
    07:00 +5°C° 0,6 mm 7 m/S 757 mmHg 91%
    08:00 +5°C° 0,6 mm 6 m/S 758 mmHg 90%
    09:00 +5°C° 0,6 mm 5 m/S 758 mmHg 89%
    10:00 +6°C° 0 mm 5 m/S 758 mmHg 86%
    11:00 +5°C° 0 mm 6 m/S 758 mmHg 82%
    12:00 +5°C° 0 mm 6 m/S 758 mmHg 79%
    13:00 +5°C° 0 mm 6 m/S 759 mmHg 80%
    14:00 +5°C° 0 mm 5 m/S 759 mmHg 81%
    15:00 +5°C° 0 mm 4 m/S 759 mmHg 82%
    16:00 +4°C° 0 mm 4 m/S 760 mmHg 84%
    17:00 +4°C° 0 mm 4 m/S 761 mmHg 86%
    18:00 +3°C° 0 mm 4 m/S 762 mmHg 88%
    19:00 +3°C° 0 mm 3 m/S 762 mmHg 90%
    20:00 +2°C° 0 mm 3 m/S 763 mmHg 91%
    21:00 +3°C° 0 mm 2 m/S 764 mmHg 93%
    22:00 +2°C° 0 mm 2 m/S 764 mmHg 93%
    23:00 +3°C° 0 mm 1 m/S 765 mmHg 94%

    19 Dezember, Dienstag

    Zeit Temperatur Niederschläge Wind Luftdruck Luftfeuchtigkeit
    00:00 +3°C° 0 mm 1 m/S 765 mmHg 94%
    01:00 +3°C° 0 mm 1 m/S 765 mmHg 94%
    02:00 +1°C° 0 mm 0 m/S 766 mmHg 94%
    03:00 +1°C° 0 mm 0 m/S 766 mmHg 94%
    04:00 +1°C° 0 mm 0 m/S 766 mmHg 94%
    05:00 +1°C° 0 mm 0 m/S 767 mmHg 94%
    06:00 +1°C° 0 mm 0 m/S 767 mmHg 94%
    07:00 +2°C° 0 mm 1 m/S 767 mmHg 93%
    08:00 +2°C° 0 mm 1 m/S 767 mmHg 92%
    09:00 +3°C° 0 mm 1 m/S 768 mmHg 92%
    10:00 +3°C° 0 mm 1 m/S 767 mmHg 89%
    11:00 +3°C° 0 mm 2 m/S 767 mmHg 87%
    12:00 +4°C° 0 mm 2 m/S 767 mmHg 85%
    13:00 +3°C° 0 mm 2 m/S 767 mmHg 87%
    14:00 +3°C° 0 mm 2 m/S 767 mmHg 89%
    15:00 +2°C° 0 mm 2 m/S 766 mmHg 91%
    16:00 +2°C° 0 mm 2 m/S 766 mmHg 90%
    17:00 +2°C° 0 mm 2 m/S 766 mmHg 90%
    18:00 +2°C° 0 mm 2 m/S 767 mmHg 89%
    19:00 +2°C° 0 mm 2 m/S 766 mmHg 88%
    20:00 +2°C° 0 mm 2 m/S 766 mmHg 87%
    21:00 +2°C° 0 mm 2 m/S 766 mmHg 86%
    22:00 +2°C° 0 mm 2 m/S 766 mmHg 84%
    23:00 +2°C° 0 mm 2 m/S 766 mmHg 83%
    Mehr zeigen